Regional Weather Roundup
Issued by NWS State College, PA

Home | Current Version | Previous Version | Text Only | Print | Product List | Glossary On
Versions: 1 2 3 4 5 6 7 8 9 10 11 12 13 14 15 16 17 18 19 20 21 22 23 24 25 26 27 28 29 30 31 32 33 34 35 36 37 38 39 40 41 42 43 44 45 46 47 48 49 50
000
ASUS41 KCTP 231410
RWRCTP

REGIONAL WEATHER ROUNDUP
NATIONAL WEATHER SERVICE STATE COLLEGE PA
1000 AM EDT FRI JUN 23 2017

Note: "fair" indicates few or no clouds below 12,000 feet with no
significant weather and/or obstructions to visibility.

* = STATION THAT DOES NOT REPORT PRECIPITATION /E.G. RAIN...SNOW...ETC/
    THUNDER OR FOG.

PAZ002>004-007>009-013>016-020>023-029>032-231500-
WESTERN PENNSYLVANIA

CITY           SKY/WX    TMP DP  RH WIND       PRES   REMARKS
ERIE           RAIN      71  68  90 S13       29.66F FOG
MEADVILLE      RAIN      68  68 100 S7        29.72F FOG
FRANKLIN*      CLOUDY    66  63  88 W3        29.76S
NEW CASTLE     CLOUDY    71  70  96 SW7       29.74F
BEAVER COUNTY  CLOUDY    70  70 100 SW9       29.76F
BUTLER*        CLOUDY    70  66  88 SW10      29.77S
PITTSBURGH INT DRIZZLE   72  71  97 SW13      29.76F
PITTSBURGH     LGT RAIN  72  68  87 SW12      29.78F FOG
INDIANA*       CLOUDY    70  70 100 W7        29.82F FOG
LATROBE        CLOUDY    72  72 100 SW9       29.81F FOG
WASHINGTON CO* CLOUDY    72  70  94 SW9       29.81F
$$

PAZ004>006-010>012-017>019-024>028-033>037-041-042-045-046-049>053-231500-
CENTRAL PENNSYLVANIA

CITY           SKY/WX    TMP DP  RH WIND       PRES   REMARKS
BRADFORD       LGT RAIN  67  67 100 VRB7      29.77F
DUBOIS         CLOUDY    68  65  90 SW9       29.77F
CLEARFIELD     LGT RAIN  69  69 100 S5        29.78F FOG
JOHNSTOWN      FOG       68  68 100 SW13G22   29.83F VSB 3/4
ALTOONA        LGT RAIN  70  70 100 SW10      29.81F FOG
STATE COLLEGE  CLOUDY    70  68  94 S6        29.79F FOG
WILLIAMSPORT   LGT RAIN  73  71  93 NE5       29.74F FOG
SELINSGROVE    LGT RAIN  73  72  96 S7        29.77F FOG
FT INDIANTOWN  DRIZZLE   71  71 100 SW8       29.79F FOG
CAPITAL CITY   CLOUDY    75  69  81 SW9       29.78F
HARRISBURG     CLOUDY    74  71  91 S8        29.77F
YORK           CLOUDY    74  72  93 VRB6      29.80F
$$

PAZ038>040-043-044-047-048-054-055-060>062-067>071-231500-
EASTERN PENNSYLVANIA

CITY           SKY/WX    TMP DP  RH WIND       PRES   REMARKS
SCRANTON       CLOUDY    78  69  73 CALM      29.77F
MOUNT POCONO   CLOUDY    73  68  84 SW9       29.84F
ALLENTOWN      CLOUDY    77  70  79 SW9       29.80F
QUAKERTOWN*    CLOUDY    73  73 100 SW9       29.83F
READING        RAIN      74  72  93 SW7       29.79F
LANCASTER      LGT RAIN  74  73  97 S12       29.80F
COATESVILLE    CLOUDY    73  72  94 VRB5      29.85F
POTTSTOWN      RAIN      73  72  96 S7        29.83F FOG
BLUE BELL      CLOUDY    73  72  94 SW7       29.84F
DOYLESTOWN     LGT RAIN  75  72  90 SW9G18    29.81F
WILLOW GROVE   NOT AVBL
NORTH PHILA    LGT RAIN  78  72  81 SW13      29.84F
PHILADELPHIA   LGT RAIN  77  71  82 SW18G31   29.84S
$$




USA.gov is the U.S. government's official web portal to all federal, state and local government web resources and services.